Regional Weather Roundup
Issued by NWS

Home | Current Version | Previous Version | Text Only | Print | Product List | Glossary On
Versions: 1 2 3 4 5 6 7 8 9 10 11 12 13 14 15 16 17 18 19 20 21 22 23 24 25 26 27 28 29 30 31 32 33 34 35 36 37 38 39 40 41 42 43 44 45 46 47 48 49 50
000
ASHW40 PHFO 220743
RWRHI

WEATHER ROUNDUP FOR HAWAII
NATIONAL WEATHER SERVICE HONOLULU HI
900 PM HST TUE FEB 21 2017

THIS IS AN AUTOMATED REPORT THAT HAS NOT BEEN QUALITY CONTROLLED.

NOTE..."FAIR" INDICATES FEW OR NO CLOUDS BELOW 12,000 FEET WITH NO
SIGNIFICANT WEATHER AND/OR OBSTRUCTIONS TO VISIBILITY.

* - THESE SITES REPORT LIMITED FIELDS

HIZ001>004-220800-
KAUAI-NIIHAU-

CITY           SKY/WX    TMP DP  RH WIND       PRES   REMARKS
LIHUE APT      PTCLDY    72  59  63 NE20      30.29R
PORT ALLEN*      N/A     70 N/A N/A NE10        N/A
POIPU*           N/A     72 N/A N/A NE10G21     N/A
PRINCEVILLE*     N/A     68 N/A N/A SE6         N/A
KOKOLE POINT*  NOT AVBL
MOLOAA DAIRY*    N/A     68  59  73 E3G14       N/A
WAIMEA HTS*      N/A     66  55  68 E5G13       N/A
PUU OPAE*      NOT AVBL
PUU LUA*       NOT AVBL
MAKAHA RIDGE*    N/A     61  54  77 NE3G12      N/A
$$

HIZ005>011-220800-
OAHU-

CITY           SKY/WX    TMP DP  RH WIND       PRES   REMARKS
HONOLULU       MOCLDY    72  59  63 NE12      30.26R
KALAELOA       LGT RAIN  73  58  59 NE7G16    30.27R
KANEOHE MCB    NOT AVBL
WHEELER FIELD  PTCLDY    67  59  75 NE8       30.26R
BELLOWS*         N/A    N/A N/A N/A NE25G31     N/A
KAHUKU*          N/A    N/A N/A N/A NE9G17      N/A
WHEELER*         N/A    N/A N/A N/A NE7G17      N/A
WAIANAE HARBOR   N/A    N/A N/A N/A E9G25       N/A
DILLINGHAM*    NOT AVBL
KAHUKU TRN*      N/A     75  64  69 W9G24       N/A
KAWAILOA*        N/A     64  57  77 NE15G25     N/A
KII*             N/A     72  61  68 E18G28      N/A
MAKUA RANGE*     N/A     70  59  68 W10G20      N/A
OAHU FOREST NW   N/A     64  55  72 CALM        N/A
SCHOFIELD BRK*   N/A     73  66  78 MISG        N/A
SCHOFIELD S*   NOT AVBL
WAIANAE VLY*   NOT AVBL
KUAOKALA*        N/A     66  -2   6 NE22G31     N/A
HONOULIUULI*   NOT AVBL
MOKUOLOE IS*   NOT AVBL
PALEHUA*         N/A     59  55  88 NE12G23     N/A
WAIAWA PHB*    NOT AVBL
$$

HIZ012>013-220800-
MOLOKAI-

CITY           SKY/WX    TMP DP  RH WIND       PRES   REMARKS
MOLOKAI AIRPT  PTCLDY    71  61  70 NE14G24   30.25R
KALAUPAPA      NOT AVBL
MAKAPULAPAI*     N/A     72  61  68 E21G31      N/A
MOLOKAI 1*     NOT AVBL
PUU ALII*        N/A     52  52  99 N3G15       N/A
$$

HIZ016-220800-
KAHOOLAWE-

CITY           SKY/WX    TMP DP  RH WIND       PRES   REMARKS
KAHOOLAWE*     NOT AVBL
HAKIOAWA*        N/A     66  58  74 MISG      30.64R
HONOKANAIA*      N/A     72  58  60 NE13G37   30.16R
KANELOA*         N/A     70  59  68 E20G36    30.27R
KEALIALALO*    NOT AVBL
LUA MAKIKA*    NOT AVBL
$$

HIZ014>015-220800-
LANAI-

CITY           SKY/WX    TMP DP  RH WIND       PRES   REMARKS
LANAI CITY       N/A     64  57  77 NE23G33   30.25S
LANAI 1*       NOT AVBL
$$

HIZ017>028-220800-
MAUI-

CITY           SKY/WX    TMP DP  RH WIND       PRES   REMARKS
KAHULUI        CLEAR     71  58  63 NE12      30.25R
KAPALUA-W MAUI NOT AVBL
HANA AIRPORT   CLOUDY    72  59  64 E9        30.31S
HANA*            N/A     73 N/A N/A NE13G18     N/A
HALEAKALA SUMM   N/A     34  21  60 E6          N/A  WCI  29
MAALAEA BAY*     N/A     72 N/A N/A N17G25      N/A
HALEAKALA*     NOT AVBL
KAUPO GAP*       N/A     72  63  73 N16G29      N/A
KULA 1*          N/A     45  39  81 E2          N/A
$$

HIZ023>026-220800-
BIG ISLAND OF HAWAII COAST AND LOWER SLOPES-

CITY           SKY/WX    TMP DP  RH WIND       PRES   REMARKS
KAILUA KONA    PTCLDY    72  57  59 NE3       30.16R
HILO           CLOUDY    72  60  66 NE9       30.26R
HONOKAA*         N/A     64 N/A N/A VRB1        N/A
KAWAIHAE MWT*    N/A     77 N/A N/A SW3         N/A
KAWAIHAE*        N/A     79 N/A N/A SE6       30.16S
SOUTH POINT*     N/A     68 N/A N/A N22G30      N/A
UPOLU AIRPORT* NOT AVBL
KAMUELA*       PTSUNNY   57  55  94 NE32      30.28S
HAKALAU*         N/A     46  46 100 W1          N/A
KALOKO-HONOKO*   N/A    N/A N/A N/A E6        30.16R
PALI 2*          N/A     59  54  82 S20G36      N/A
KEALAKOMO*       N/A     72  59  64 N18G25      N/A
KAUPULEHU*       N/A     64  57  77 VRB3G12     N/A
KAPAPALA*        N/A     61  56  85 W3G9        N/A
LOWER KAHUKU*    N/A     55  54  94 VRB2        N/A
PUHE CS*         N/A     75  54  46 S2G10       N/A
PUHO CS*         N/A     74  62  66 E2          N/A
PTA KEAMUKU*     N/A     55  50  82 CALM        N/A
WAIKOLOA*        N/A     68  57  68 E13G36      N/A
$$

HIZ027>028-220800-
BIG ISLAND OF HAWAII INTERIOR AND SUMMMITS-

CITY           SKY/WX    TMP DP  RH WIND       PRES   REMARKS
BRADSHAW FIELD PTCLDY    46  43  90 SE9       30.45R
MK VISITOR CEN   N/A     41  12  30 N12         N/A
MAUNA KEA*       N/A     19   1  45 SE2         N/A
MAUNA LOA*       N/A     32   5  32 MISG        N/A
MAUNA LOA 1*   NOT AVBL
PTA KIPUKA*      N/A     64  54  68 SE14G24     N/A
PTA RANGE 17*    N/A     66  57  72 SE17G26     N/A
PTA WEST*        N/A     68  55  64 E20G32      N/A
NENE CABIN*      N/A     45  32  61 NE5G12      N/A
AHUMOA*          N/A    N/A N/A N/A NE3         N/A
PTA PORTABLE*  NOT AVBL
PUU MALI*        N/A     48  43  81 E18G26      N/A
$$

HIC003-220800-
NORTHWEST ISLANDS-

CITY           SKY/WX    TMP DP  RH WIND       PRES   REMARKS
MIDWAY ISLAND  CLEAR     72  66  83 SE16      30.19S
MIDWAY NOS*      N/A     70 N/A N/A MISG      30.18R
FRENCH FRIGATE NOT AVBL
$$

PHZ110>124-180-220800-
BUOY REPORTS

STATION/POSITION TIME  TEMP    WIND        PRES    WAVE   SWELL
                       AIR SEA DIR/SP/G            HT/PER HT/DIR
                 (UTC) (F)     (DEG/KT/KT) (MB)    (FT/S) (FT/D)
BUOY 51001       0730   71 72   70/ 16/ 19 1027.5R
BUOY 51101       0650   71 72   70/ 17/ 19 1027.5R   6/ 8   3/ 20
BUOY 51100       NOT AVBL
BUOY 51002       0730   76 77   60/ 23/ 27 1020.9R
BUOY 51003       0650   75 77   50/ 16/ 21 1022.2R   9/ 8   7/ 90
BUOY 51004       0650      77   40/ 25/ 29 1020.4R  11/ 8   5/340
BARBERS PT BUOY  NOT AVBL
WAIMEA BAY BUOY  0702      75                N/A     7/10   2/360
KAILUA BAY BUOY  0704      75                N/A     9/ 7   2
LANAI BUOY       0715      76                N/A     3/ 8   2/280
BARBERS PT 2     NOT AVBL
PAUWELA MAUI     0709      75                N/A     8/ 7   2/340
HILO             0712      76                N/A     8/ 8   2/350
KANEOHE BAY BUOY 0706      75                N/A     8/10   2/350
HANALEI KAUAI    0722      76                N/A     7/ 7   2/330
KAHULUI HARBOR   0706   73 74   60/ 14/ 18 1024.5
HONOLULU HARBOR  0706   72 75   50/  8/ 15 1025.2
KILO NALU        NOT AVBL
HILO HARBOR      0706   73 76   50/ 11/ 16 1024.6
MOKUOLOE         0636   73 74   70/ 17/ 21 1025.0R
NAWILIWILI       0718   72      60/ 12/ 18 1025.4
WHOTS BUOY       NOT AVBL
BUOY 51028       NOT AVBL
$$

......................KEY........................................
  SKY/WX - SKY CONDITIONS/PRESENT WEATHER
  TMP    - TEMPERATURE IN FAHRENHEIT
  DWPT   - DEWPOINT IN FAHRENHEIT
  RH     - RELATIVE HUMIDITY IN PERCENT
  WIND   - DIRECTION AND SPEED /MPH FOR ISLANDS...KTS FOR BUOYS/
  PRES   - MEAN SEA LEVEL PRESSURE IN INCHES OF HG
  VSB    - VISIBILITY IN MILES
  HX     - HEAT INDEX
  WCI    - WIND CHILL INDEX
  VRB    - VARIABLE WIND DIRECTION
  N/A    - NOT AVAILABLE




USA.gov is the U.S. government's official web portal to all federal, state and local government web resources and services.